[[{"header":{"parameterUnit":"m.s-1","parameterCategory":1,"la1":30.2991,"la2":30.254,"lo1":-89.0895,"lo2":-89.0444,"dy":0.0017,"dx":0.0017,"nx":28,"ny":28,"refTime":"2025-04-19T03:00:00:Z","depth":0,"parameterNumber":2,"parameterNumberName":"U-component_of_WINDS"},"data":[0,0,0,0,0,0,0,0,0,0,0,0,0,0,0,0,0,0,0,0,0,0,0,0,0,0,0,0,0,0,0,0,0,0,0,0,0,0,0,0,0,0,0,0,0,0,0,0,0,0,0,0,0,0,0,0,0,0,-5.266,-5.2662,0,-5.2803,-5.2805,-5.2806,-5.279,-5.2788,-5.2786,-5.2784,-5.2928,-5.2934,-5.294,0,0,0,0,0,0,0,0,0,0,0,0,0,-5.2372,-5.2378,-5.266,-5.2662,-5.2664,-5.2803,-5.2805,-5.2807,-5.2791,-5.2788,-5.2785,-5.2783,-5.2926,-5.2933,-5.2941,0,0,0,0,0,0,0,0,0,0,0,0,0,-5.2504,-5.238,-5.266,-5.2672,-5.2675,-5.2802,-5.2805,-5.2807,-5.2791,-5.2788,-5.2784,-5.2781,-5.2924,-5.2933,-5.2942,-5.3065,0,0,-5.2969,-5.2973,0,0,0,0,0,0,0,0,-5.2497,-5.2515,-5.2669,-5.2672,-5.2675,-5.2775,-5.2756,-5.2893,-5.2792,-5.2747,-5.2783,-5.278,-5.288,-5.2892,-5.2927,-5.3072,-5.3078,-5.297,-5.2975,-5.2979,-5.2981,0,0,0,0,0,0,0,-5.2488,-5.2509,-5.2716,-5.2671,-5.2675,-5.2671,-5.2686,-5.2782,-5.2831,-5.2751,-5.275,-5.2767,-5.2881,-5.2918,-5.293,-5.308,-5.2969,-5.2977,-5.2983,-5.2986,-5.3333,-5.3337,0,0,0,0,0,0,-5.2476,-5.2501,-5.2712,-5.2721,-5.2576,-5.2679,-5.2695,-5.2746,-5.283,-5.2839,-5.277,-5.2766,-5.2904,-5.2919,-5.2935,-5.3084,-5.2979,-5.2987,-5.2992,-5.3329,-5.3334,-5.3338,0,0,0,0,0,0,-5.247,-5.2495,-5.2706,-5.2611,-5.2638,-5.2687,-5.2745,-5.2751,-5.2788,-5.2844,-5.2853,-5.2799,-5.2902,-5.2922,-5.3033,-5.3089,-5.2991,-5.2999,-5.3325,-5.3331,-5.3336,-5.3383,0,0,0,0,0,0,-5.2461,-5.2493,-5.254,-5.2612,-5.2643,-5.2802,-5.2748,-5.2756,-5.2804,-5.28,-5.2874,-5.2882,-5.2901,-5.3019,-5.3042,-5.3099,-5.3006,-5.332,-5.3327,-5.3334,-5.3377,-5.339,-5.3401,0,0,0,0,0,-5.2451,-5.2547,-5.2542,-5.2568,-5.2703,-5.2805,-5.2822,-5.2842,-5.2808,-5.2856,-5.2892,-5.288,-5.308,-5.3031,-5.3056,-5.3117,-5.3316,-5.3325,-5.3334,-5.3371,-5.3387,-5.3401,0,0,0,0,0,0,-5.2479,-5.2557,-5.2552,-5.2675,-5.2734,-5.2802,-5.2863,-5.2859,-5.2928,-5.2921,-5.2943,-5.296,-5.3071,-5.3105,-5.305,-5.3241,-5.3193,-5.3207,-5.3213,-5.3229,-5.3241,-5.3229,-5.3014,0,0,0,0,0,-5.25,-5.2577,-5.264,-5.2742,-5.2772,-5.2813,-5.2858,-5.2868,-5.293,-5.2954,-5.2999,-5.3059,-5.3135,-5.3184,-5.3257,-5.3383,-5.3398,-5.3437,-5.3449,-5.3459,-5.347,-5.3538,-5.3556,-5.3366,-5.3366,-5.3366,0,0,-5.2543,-5.2595,-5.2642,-5.2749,-5.2796,-5.2874,-5.2833,-5.2918,-5.2976,-5.2967,-5.3073,-5.3109,-5.3177,-5.3295,-5.3349,-5.3327,-5.3526,-5.347,-5.3477,-5.3483,-5.3549,-5.3566,-5.3582,-5.3372,-5.3371,-5.337,0,0,-5.2661,-5.2709,-5.2798,-5.2846,-5.2918,-5.2945,-5.2966,-5.3037,-5.3059,-5.3167,-5.3162,-5.3232,-5.3362,-5.3411,-5.3453,-5.3591,-5.3582,-5.3615,-5.3677,-5.3743,-5.3758,-5.3771,-5.3819,-5.3836,-5.3626,-5.3626,-5.3626,0,-5.2705,-5.2823,-5.2845,-5.293,-5.2977,-5.2974,-5.3065,-5.311,-5.3202,-5.3234,-5.3209,-5.3373,-5.3419,-5.3548,-5.3582,-5.3617,-5.3641,-5.3605,-5.3754,-5.3768,-5.378,-5.3826,-5.3844,-5.363,-5.3629,-5.3629,-5.3629,0,-5.2873,-5.2955,-5.3019,-5.3108,-5.3163,-5.3251,-5.3285,-5.3338,-5.3345,-5.3374,-5.3484,-5.3539,-5.3623,-5.3655,-5.3662,-5.3786,-5.377,-5.3749,-5.3702,-5.3801,-5.3845,-5.3862,-5.3634,-5.3633,-5.3632,-5.3631,0,0,-5.301,-5.3111,-5.3134,-5.3174,-5.3254,-5.3318,-5.3406,-5.3489,-5.3533,-5.3598,-5.3671,-5.3783,-5.3765,-5.3812,-5.3825,-5.3884,-5.3988,-5.3856,-5.3858,-5.3877,-5.4126,-5.4139,-5.4159,-5.3984,-5.3987,-5.399,-5.412,0,-5.3134,-5.3289,-5.3312,-5.3449,-5.3525,-5.3524,-5.36,-5.3658,-5.3688,-5.3757,-5.379,-5.3868,-5.3839,-5.3868,-5.3926,-5.3963,-5.4038,-5.3954,-5.4051,-5.4054,-5.4031,-5.4182,-5.4196,-5.4316,-5.4137,-5.414,-5.4142,0,-5.3299,-5.3368,-5.3513,-5.3582,-5.3615,-5.3683,-5.3761,-5.3827,-5.3892,-5.391,-5.3964,-5.3971,-5.4061,-5.4012,-5.4137,-5.408,-5.4121,-5.4146,-5.4151,-5.4159,-5.4102,-5.4192,-5.4354,-5.4371,-5.4169,-5.4167,-5.4165,0,-5.3382,-5.3512,-5.3615,-5.365,-5.3734,-5.3782,-5.3819,-5.3881,-5.3929,-5.3998,-5.4029,-5.4108,-5.415,-5.421,-5.4237,-5.4199,-5.436,-5.4314,-5.4377,-5.4376,-5.4408,-5.4405,-5.4577,-5.4439,-5.4439,-5.4439,-5.4438,0,-5.3517,-5.3605,-5.3653,-5.3716,-5.3815,-5.3841,-5.3937,-5.3973,-5.4029,-5.4098,-5.4103,-5.4168,-5.4201,-5.4272,-5.4294,-5.4393,-5.4413,-5.4429,-5.4433,-5.4427,-5.4425,-5.4453,-5.4444,-5.4443,-5.4442,-5.4441,-5.4441,0,-5.3625,-5.3661,-5.3773,-5.3844,-5.3864,-5.3934,-5.3994,-5.4056,-5.4086,-5.4175,-5.4197,-5.4245,-5.4328,-5.4362,-5.4464,-5.4479,-5.4593,-5.4592,-5.457,-5.4571,-5.4631,-5.4625,-5.4825,-5.4853,-5.4698,-5.47,-5.4701,0,-5.3707,-5.3775,-5.3854,-5.3901,-5.394,-5.4016,-5.4066,-5.4095,-5.4146,-5.4226,-5.4278,-5.4361,-5.4429,-5.4562,-5.4606,-5.4684,-5.4683,-5.4749,-5.4695,-5.4687,-5.4682,-5.4677,-5.4683,-5.4757,-5.4759,-5.476,-5.4761,0,-5.3849,-5.3864,-5.3936,-5.4014,-5.4073,-5.4137,-5.4198,-5.4236,-5.4274,-5.4332,-5.4418,-5.447,-5.4575,-5.4657,-5.4738,-5.4776,-5.4775,-5.4778,-5.4797,-5.479,-5.4774,-5.4781,-5.4595,-5.4773,-5.4772,-5.4771,-5.477,-5.477,-5.3946,-5.4006,-5.407,-5.415,-5.42,-5.4257,-5.4318,-5.4357,-5.4429,-5.4516,-5.4529,-5.462,-5.4684,-5.4793,-5.4834,-5.4906,-5.4889,-5.4916,-5.4922,-5.4928,-5.4931,-5.4765,-5.4921,-5.4921,-5.492,-5.492,-5.492,0,-5.4086,-5.4128,-5.4202,-5.4287,-5.435,-5.4345,-5.4413,-5.4466,-5.4546,-5.4606,-5.4673,-5.4771,-5.4851,-5.4902,-5.4983,-5.5031,-5.5032,-5.5051,-5.5046,-5.5055,-5.4942,-5.4917,-5.5048,-5.5048,-5.5048,-5.5048,-5.5048,-5.5048,-5.4166,-5.4267,-5.429,-5.4415,-5.4457,-5.4546,-5.4585,-5.4638,-5.4686,-5.4795,-5.4862,-5.4895,-5.4952,-5.5037,-5.511,-5.5123,-5.5152,-5.5171,-5.5183,-5.5076,-5.5063,-5.505,-5.5026,-5.5178,-5.5178,-5.5289,-5.529,-5.5291]},{"header":{"parameterUnit":"m.s-1","parameterCategory":1,"la1":30.2991,"la2":30.254,"lo1":-89.0895,"lo2":-89.0444,"dy":0.0017,"dx":0.0017,"nx":28,"ny":28,"refTime":"2025-04-19T03:00:00:Z","depth":0,"parameterNumber":3,"parameterNumberName":"V-component_of_WINDS"},"data":[0,0,0,0,0,0,0,0,0,0,0,0,0,0,0,0,0,0,0,0,0,0,0,0,0,0,0,0,0,0,0,0,0,0,0,0,0,0,0,0,0,0,0,0,0,0,0,0,0,0,0,0,0,0,0,0,0,0,3.9693,3.9694,0,3.9761,3.9762,3.9762,3.9752,3.9751,3.975,3.9749,3.9814,3.9816,3.9819,0,0,0,0,0,0,0,0,0,0,0,0,0,3.9551,3.9554,3.9693,3.9694,3.9695,3.9761,3.9762,3.9763,3.9752,3.9751,3.9749,3.9748,3.9813,3.9816,3.9819,0,0,0,0,0,0,0,0,0,0,0,0,0,3.9615,3.9555,3.9693,3.9698,3.9699,3.9761,3.9762,3.9763,3.9752,3.9751,3.9749,3.9747,3.9812,3.9816,3.982,3.988,0,0,3.9833,3.9834,0,0,0,0,0,0,0,0,3.9612,3.9621,3.9696,3.9697,3.9699,3.9746,3.9736,3.9802,3.9753,3.9732,3.9749,3.9747,3.9792,3.9798,3.9814,3.9883,3.9886,3.9833,3.9836,3.9837,3.9838,0,0,0,0,0,0,0,3.9607,3.9618,3.972,3.9697,3.9699,3.9695,3.9703,3.9748,3.9771,3.9734,3.9733,3.9741,3.9793,3.981,3.9816,3.9887,3.9833,3.9837,3.9839,3.9841,4.0009,4.0011,0,0,0,0,0,0,3.9602,3.9614,3.9717,3.9722,3.965,3.9699,3.9707,3.9733,3.977,3.9774,3.9743,3.9741,3.9804,3.9811,3.9818,3.9892,3.9837,3.9841,3.9844,4.0007,4.001,4.0012,0,0,0,0,0,0,3.9599,3.9611,3.9715,3.9668,3.9681,3.9704,3.9732,3.9735,3.9753,3.9777,3.9781,3.9757,3.9803,3.9812,3.9865,3.9894,3.9843,3.9847,4.0005,4.0008,4.0011,4.0039,0,0,0,0,0,0,3.9595,3.961,3.9634,3.9668,3.9683,3.9762,3.9734,3.9737,3.976,3.9758,3.9791,3.9795,3.9802,3.9859,3.9869,3.9899,3.985,4.0002,4.0006,4.001,4.0035,4.0042,4.0048,0,0,0,0,0,3.959,3.9638,3.9635,3.9648,3.9713,3.9763,3.9772,3.978,3.9763,3.9786,3.9802,3.9794,3.9889,3.9865,3.9876,3.9907,4.0001,4.0005,4.0009,4.0032,4.0041,4.0048,0,0,0,0,0,0,3.9604,3.9642,3.964,3.97,3.9729,3.9762,3.9791,3.9789,3.9821,3.9818,3.9826,3.9833,3.9887,3.9902,3.9874,3.9968,3.9942,3.9949,3.9956,3.9964,3.997,3.9965,3.9854,0,0,0,0,0,3.9615,3.9653,3.9684,3.9735,3.9749,3.9768,3.979,3.9795,3.9824,3.9835,3.9855,3.9883,3.9919,3.9942,3.9977,4.0038,4.0045,4.0065,4.0071,4.0076,4.0082,4.0116,4.0126,4.0026,4.0026,4.0026,0,0,3.9636,3.9662,3.9685,3.9738,3.9761,3.98,3.9778,3.982,3.9849,3.9841,3.9893,3.9909,3.994,3.9998,4.0024,4.0012,4.0111,4.0082,4.0086,4.0089,4.0122,4.0131,4.014,4.0029,4.0029,4.0028,0,0,3.9695,3.9718,3.9764,3.9788,3.9823,3.9836,3.9846,3.988,3.9891,3.9944,3.9939,3.9973,4.0035,4.0058,4.0078,4.0148,4.0142,4.0159,4.0192,4.0226,4.0233,4.024,4.0266,4.0275,4.0165,4.0165,4.0165,0,3.9716,3.9776,3.9787,3.983,3.9854,3.9851,3.9897,3.9919,3.9963,3.9979,3.9965,4.0044,4.0065,4.0128,4.0146,4.0162,4.0174,4.0155,4.0232,4.0239,4.0245,4.027,4.0279,4.0167,4.0166,4.0166,4.0166,0,3.9802,3.9843,3.9876,3.9921,3.9948,3.9992,4.0009,4.0035,4.0037,4.0051,4.0105,4.013,4.0171,4.0186,4.0188,4.025,4.0242,4.023,4.0204,4.0257,4.028,4.0289,4.0169,4.0169,4.0168,4.0168,0,0,3.987,3.9922,3.9934,3.9955,3.9995,4.0027,4.0071,4.0112,4.0135,4.0166,4.0203,4.0256,4.0246,4.0269,4.0273,4.0303,4.0358,4.0287,4.0288,4.03,4.0429,4.0437,4.0448,4.0354,4.0356,4.0357,4.0426,0,3.9933,4.0013,4.0025,4.0095,4.0134,4.0132,4.0171,4.0199,4.0214,4.0248,4.0263,4.0302,4.0285,4.0299,4.0328,4.0345,4.0384,4.034,4.0388,4.039,4.038,4.046,4.0469,4.0533,4.0435,4.0437,4.0438,0,4.0017,4.0053,4.0128,4.0164,4.0181,4.0215,4.0255,4.0288,4.032,4.0329,4.0355,4.0357,4.0402,4.0375,4.0438,4.0408,4.0428,4.044,4.0442,4.0447,4.0417,4.0467,4.0553,4.0563,4.0452,4.0451,4.045,0,4.006,4.0127,4.0181,4.0199,4.0242,4.0267,4.0285,4.0316,4.0341,4.0375,4.0391,4.0429,4.045,4.048,4.0491,4.0471,4.0553,4.0527,4.0561,4.0561,4.0578,4.0577,4.0669,4.0591,4.0591,4.0591,4.0591,0,4.0129,4.0175,4.0201,4.0234,4.0285,4.0298,4.0348,4.0366,4.0394,4.043,4.043,4.0463,4.0477,4.0513,4.0522,4.0572,4.0582,4.0589,4.0591,4.0589,4.0589,4.0603,4.0598,4.0594,4.0593,4.0592,4.0592,0,4.0186,4.0205,4.0264,4.0301,4.0311,4.0348,4.0379,4.0411,4.0426,4.0471,4.0482,4.0506,4.0548,4.0563,4.0613,4.0619,4.0678,4.0676,4.0668,4.0668,4.0701,4.0698,4.0806,4.0821,4.0733,4.0734,4.0734,0,4.0229,4.0265,4.0307,4.0332,4.0352,4.0392,4.0418,4.0432,4.0459,4.0499,4.0526,4.0568,4.0603,4.067,4.069,4.0729,4.0728,4.0763,4.0734,4.0731,4.0729,4.0727,4.0731,4.0768,4.0769,4.077,4.0771,0,4.0303,4.0312,4.035,4.0392,4.0424,4.0457,4.0489,4.0509,4.0528,4.0558,4.0602,4.0629,4.0682,4.0724,4.0764,4.0782,4.078,4.078,4.079,4.0788,4.0782,4.0787,4.0683,4.0777,4.0777,4.0776,4.0776,4.0776,4.0355,4.0387,4.0422,4.0465,4.0491,4.0522,4.0554,4.0574,4.0612,4.0657,4.0663,4.071,4.0742,4.0796,4.0817,4.0853,4.0843,4.0858,4.0861,4.0865,4.0867,4.0777,4.086,4.086,4.086,4.086,4.086,0,4.043,4.0453,4.0493,4.0539,4.0573,4.057,4.0606,4.0634,4.0676,4.0707,4.0742,4.0793,4.0834,4.0858,4.09,4.0924,4.0924,4.0934,4.0933,4.0937,4.0874,4.0861,4.0934,4.0934,4.0934,4.0934,4.0934,4.0934,4.0473,4.0528,4.054,4.0608,4.0631,4.0679,4.07,4.0728,4.0753,4.081,4.0845,4.0862,4.089,4.0934,4.0971,4.0977,4.0992,4.1004,4.1009,4.0949,4.0941,4.0934,4.0922,4.1007,4.1007,4.1069,4.107,4.107]}]]